Simultaneous Nadir Overpasses (SNOs) Predictions

Prediction of SNOs between LANDSAT-8 and METOP-B Satellite Orbit:

Table of predicted SNOs for the next 14.0 days since TLE Epoch: 3/5/2022
Index Date (LANDSAT-8) Time (LANDSAT-8) Lat,Lon (LANDSAT-8) SZA (LANDSAT-8 ) Date (METOP-B) Time (METOP-B) Lat,Lon (METOP-B) SZA (METOP-B ) Distance(km) Time Diff (sec)
1 03/06/2022 04:44:32 -81.16, -31.05 91.42 03/06/2022 04:43:41 -81.15, -31.22 91.46 3.12 51
2 03/06/2022 05:33:58 81.16, 136.69 88.59 03/06/2022 05:34:20 81.16, 136.61 88.59 1.40 22
3 03/09/2022 00:18:47 -81.14, 35.17 92.53 03/09/2022 00:18:02 -81.15, 35.28 92.53 2.00 45
4 03/09/2022 01:08:12 81.17,-156.75 87.53 03/09/2022 01:08:41 81.17,-156.90 87.52 2.64 29
5 03/11/2022 19:53:01 -81.15, 101.69 93.60 03/11/2022 19:52:23 -81.15, 101.75 93.60 1.08 38
6 03/11/2022 20:42:26 81.17, -90.26 86.45 03/11/2022 20:43:02 81.17, -90.45 86.45 3.19 36
7 03/14/2022 15:27:14 -81.15, 168.13 94.68 03/14/2022 15:26:43 -81.15, 168.18 94.69 0.90 31
8 03/14/2022 16:16:39 81.17, -23.85 85.36 03/14/2022 16:17:22 81.17, -24.02 85.36 3.04 43
9 03/17/2022 11:01:27 -81.17,-125.13 95.73 03/17/2022 11:01:03 -81.17,-125.05 95.73 1.39 24



Historial Predications of SNOs between LANDSAT-8 and METOP-B
